#timestamp,LO_Frequency,Hit 
1505980815.8,286046992.2,N
1505980835.7,286046991.9,N
1505980855.5,286046992.2,N
1505980875.3,286047000.4,N
1505980895.2,286047006.0,N
1505980915.9,286047003.7,N
1505980935.7,286046995.5,N
1505980955.5,286046996.1,N
1505980975.4,286046995.7,N
1505980995.2,286046998.9,N
1505981015.0,286047001.3,N
1505981015.9,286047001.3,N
1505981035.8,286047001.3,N
1505981055.6,286046997.9,N
1505981075.4,286046995.8,N
1505981095.3,286046992.1,N
1505981115.1,286046990.4,N
1505981135.8,286046993.9,N
1505981155.7,286046995.1,N
1505981175.5,286046995.6,N
1505981195.3,286047001.2,N
1505981215.2,286047000.0,N
1505981235.9,286047000.6,N
1505981255.7,286046996.9,N
1505981275.6,286046999.3,N
1505981295.4,286046996.9,N
1505981315.2,286046997.5,N
1505981335.0,286046995.6,N
1505981336.0,286046995.6,N
1505981355.8,286046997.7,N
1505981375.6,286046996.7,N
1505981395.4,286046997.9,N
1505981415.3,286046994.0,N
1505981435.1,286046996.3,N
1505981455.8,286046995.2,N
1505981475.7,286046994.2,N
1505981495.5,286046990.5,P
1505981515.3,286046999.4,N
1505981535.2,286047000.9,N
1505981555.0,286046997.9,N
1505981555.9,286046997.9,N
1505981575.7,286046994.8,N
1505981595.6,286046990.1,P
1505981615.4,286046997.5,N
1505981635.2,286047001.1,N
1505981655.1,286047001.8,N
1505981656.0,286047001.8,N
1505981675.8,286047001.4,N
1505981695.6,286047001.3,N
1505981715.5,286046999.5,N
1505981735.3,286046994.7,N
1505981755.1,286046991.0,N
1505981775.9,286046994.2,N
1505981795.7,286046994.9,N
1505981815.5,286047000.6,N
1505981835.4,286046999.2,N
1505981855.2,286046995.4,N
1505981875.0,286046995.8,N
1505981875.9,286046995.8,N
1505981895.7,286046997.4,N
1505981915.6,286046994.5,N
1505981935.4,286046995.6,N
1505981955.2,286046994.9,N
1505981975.1,286047001.1,N
1505981976.0,286047001.1,N
1505981995.8,286046998.5,N
1505982015.6,286046999.2,N
1505982035.5,286046997.3,N
1505982055.3,286046990.5,N
1505982075.1,286046989.0,P
1505982095.9,286046990.9,N
1505982115.7,286046987.1,P
1505982135.5,286046987.5,P
1505982155.4,286046995.6,N
1505982175.2,286047000.6,N
1505982195.0,286047006.0,N
1505982195.9,286047006.0,N
1505982215.8,286047003.4,N
1505982235.6,286047002.6,N
1505982255.4,286047002.8,N
1505982275.3,286046999.8,N
1505982295.1,286046998.1,N
1505982296.0,286046998.1,N
1505982315.8,286046998.4,N
1505982335.7,286046992.1,N
1505982355.5,286046996.0,N
1505982375.3,286047001.6,N
1505982395.2,286047004.5,N
1505982415.9,286047011.4,N
1505982435.7,286047009.6,N
1505982455.5,286047006.9,N
1505982475.4,286047006.9,N
1505982495.2,286047001.7,N
1505982515.0,286046996.6,N
1505982515.9,286046996.6,N
1505982535.8,286046995.1,N
1505982555.6,286046998.3,N
1505982575.4,286047001.7,N
1505982595.3,286047005.5,N
1505982615.1,286047003.3,N
1505982616.0,286047003.3,N
1505982635.8,286047008.9,N
1505982655.7,286047008.0,N
1505982675.5,286047006.1,N
1505982695.3,286047008.1,N
1505982715.2,286047008.3,N
1505982735.9,286047004.2,N
1505982755.7,286047002.9,N
1505982775.5,286047006.4,N
1505982795.4,286047008.5,N
1505982815.2,286047009.0,N
1505982835.0,286047004.3,N
1505982835.9,286047004.3,N
1505982855.8,286047001.5,N
1505982875.6,286047003.6,N
1505982895.4,286047001.8,N
1505982915.3,286046998.0,N
1505982935.1,286046993.1,N
1505982955.8,286046992.7,N
1505982975.7,286046992.9,N
1505982995.5,286046996.8,N
1505983015.3,286046995.3,N
1505983035.2,286046991.6,N
1505983055.9,286046994.1,N
1505983075.7,286046996.8,N
1505983095.6,286047000.4,N
1505983115.4,286047004.0,N
1505983135.2,286047000.9,N
1505983155.0,286046995.2,N
1505983155.9,286046995.2,N
1505983175.8,286046990.4,N
1505983195.6,286046989.2,N
1505983215.4,286046987.6,N
1505983235.3,286046989.1,N
1505983255.1,286046988.5,N
1505983275.8,286046994.6,N
1505983295.7,286046997.8,N
1505983315.5,286046996.3,N
1505983335.3,286046992.3,N
1505983355.2,286046995.6,N
1505983375.9,286046995.2,N
1505983395.7,286046992.5,N
1505983415.6,286046996.4,N
1505983435.4,286046995.9,N
1505983455.2,286046991.4,N
1505983475.0,286046991.0,N
1505983476.0,286046991.0,N
1505983495.8,286046990.6,N
1505983515.6,286046994.5,N
1505983535.4,286046996.1,N
1505983555.3,286046995.4,N
1505983575.1,286046999.5,N
1505983595.8,286046999.1,N
1505983615.7,286046996.4,N
1505983635.5,286046989.8,N
1505983655.3,286046990.7,N
1505983675.2,286046988.6,N
1505983695.9,286046991.5,N
1505983715.7,286046991.3,N
1505983735.6,286046993.0,N
1505983755.4,286046994.6,N
1505983775.2,286046992.6,N
1505983795.1,286046992.3,N
1505983796.0,286046992.3,N
1505983815.8,286046992.5,N
1505983835.6,286046991.2,P
1505983855.5,286046993.8,P
1505983875.3,286046991.9,P
1505983895.1,286046993.8,P
1505983915.9,286047002.5,P
1505983935.7,286047000.4,N
1505983955.5,286047003.7,N
1505983975.4,286047003.9,N
1505983995.2,286047005.7,N
1505984015.0,286047004.7,N
1505984015.9,286047004.7,N
1505984035.7,286047004.1,N
1505984055.6,286047001.7,N
1505984075.4,286047003.5,N
1505984095.2,286047001.4,N
1505984115.1,286047002.1,N
1505984116.0,286047002.1,N
1505984135.8,286047001.8,N
1505984155.6,286047002.0,N
1505984175.5,286047003.8,N
1505984195.3,286047005.4,N
1505984215.1,286047003.7,N
1505984235.9,286047002.8,N
1505984255.7,286046999.3,N
1505984275.5,286046997.6,N
1505984295.4,286046996.7,N
1505984315.2,286046997.4,N
1505984335.0,286046998.3,N
1505984335.9,286046998.3,N
1505984355.7,286047001.1,N
1505984375.6,286046998.8,N
1505984395.4,286046999.1,N
